User: anonymous   Login
Location: SAPM � Hemmingford
(45.0500°N, 73.5833°W)
Time: 13:23:50
(UTC-04:00)
Language:

Cosmos 1674 Rocket - Orbit

View from above orbital plane
View from above orbital plane
View from above satellite
View from above satellite

Ground track
Ground track

The orbit data is extracted from the following two-line orbital elements,

1 15945U 85069B   16268.81033886  .00000135  00000-0  13245-4 0  9990
2 15945  82.5303  21.5332 0021289  78.9961 281.3647 14.83881536681671
Epoch (UTC): 24 September 2016 19:26:53
Eccentricity: 0.0021289
inclination: 82.5303°
perigee height: 602 km
apogee height: 632 km
right ascension of ascending node: 21.5332°
argument of perigee: 78.9961°
revolutions per day: 14.83881536
mean anomaly at epoch: 281.3647°
orbit number at epoch: 68167

The dashed part of the orbit path shows where the satellite is in the earth's shadow,  

DLR